DIAMOND POINT GARDINER WA US WA DOT current weather conditions

sailwx.info

Wind from 171 at 1 knots gusting 2

Air temperature 6.3° C
Visibility: greater than 1.1 NM
Dewpoint 5.9° C

Last reported at 2019-Nov-15 09:01 UTC.
Time now 2019-Nov-15 10:15 UTC

Location: N 48°03' W 122°57'.
View on Google Maps.

See reports from other nearby stations

  
Tides and Currents Weather Stations Pressure Air Temp Water Temp Dewpoint Dewpoint Depression Visibility Wind Speed Wind Dir Waves Ship Positions
date/time (UTC)wind fromknots sea level pressurealtimeterstation pressurevisibilityair tempwater tempwave heightnotes
2019-Nov-15 09:01 171 1 gusting 2 1.1 6.3
2019-Nov-15 08:52 1.1 6.3
2019-Nov-15 08:41 259 1 gusting 1 1.1 6.4
2019-Nov-15 08:31 1.1 6.4
2019-Nov-15 08:21 1.1 6.5
2019-Nov-15 08:11 219 1 1.1 6.4
2019-Nov-15 08:01 231 1 gusting 1 1.1 6.5
2019-Nov-15 07:51 268 1 gusting 2 1.1 6.6
2019-Nov-15 07:41 261 1 gusting 2 1.1 6.8
2019-Nov-15 07:31 124 1 gusting 3 1.1 6.9
2019-Nov-15 07:21 029 1 gusting 3 1.1 6.8
2019-Nov-15 07:11 104 1 gusting 2 1.1 6.7
2019-Nov-15 07:01 119 1 gusting 2 1.1 6.8
2019-Nov-15 06:51 159 1 gusting 3 1.1 7.0
2019-Nov-15 06:41 113 2 gusting 2 1.1 6.9
2019-Nov-15 06:31 1.1 6.9
2019-Nov-15 06:21 1.1 7.2
2019-Nov-15 06:11 269 1 gusting 2 1.1 7.1
2019-Nov-15 06:01 207 1 1.1 7.2
2019-Nov-15 05:51 264 1 gusting 2 1.1 7.4
2019-Nov-15 05:21 1.1 7.5
2019-Nov-15 05:03 246 0 gusting 3 1.1 7.7
2019-Nov-15 04:51 268 1 gusting 3 1.1 7.7
2019-Nov-15 04:41 233 1 gusting 3 1.1 7.7
2019-Nov-15 04:31 268 2 gusting 4 1.1 7.7
2019-Nov-15 04:21 280 3 gusting 6 1.1 7.6
2019-Nov-15 04:11 253 1 gusting 2 1.1 7.6
2019-Nov-15 03:51 254 0 1.1 7.6
2019-Nov-15 03:41 1.1 7.6
2019-Nov-15 03:31 306 1 gusting 2 1.1 7.5
2019-Nov-15 03:21 1.1 7.7
2019-Nov-15 03:14 1.1 7.7
2019-Nov-15 03:01 1.1 7.7
2019-Nov-15 02:51 1.1 7.7
2019-Nov-15 02:44 1.1 7.7
2019-Nov-15 02:31 1.1 7.6
2019-Nov-15 02:21 204 0 gusting 2 1.1 7.6
2019-Nov-15 02:11 307 1 gusting 3 1.1 7.5
2019-Nov-15 02:01 291 2 gusting 3 1.1 7.5
2019-Nov-15 01:51 1.1 7.7
2019-Nov-15 01:41 158 1 gusting 3 1.1 7.6
2019-Nov-15 01:31 181 0 gusting 2 1.1 7.7
2019-Nov-15 01:21 237 1 gusting 3 1.1 7.8
2019-Nov-15 01:11 245 1 gusting 4 1.1 7.8
2019-Nov-15 01:01 269 1 gusting 3 1.1 7.8
2019-Nov-15 00:51 310 1 gusting 2 1.1 7.8
2019-Nov-15 00:43 029 2 gusting 3 1.1 7.8
2019-Nov-15 00:31 064 1 gusting 3 1.1 8.0
2019-Nov-15 00:21 092 2 gusting 4 1.1 8.1
2019-Nov-15 00:11 098 3 gusting 4 1.1 8.2
2019-Nov-15 00:01 094 3 gusting 4 1.1 8.4
2019-Nov-14 23:51 111 1 gusting 3 1.1 8.6
2019-Nov-14 23:41 100 1 gusting 2 1.1 8.8
2019-Nov-14 23:32 1.1 8.9
2019-Nov-14 23:21 1.1 8.9
2019-Nov-14 23:11 317 1 gusting 3 1.1 8.8
2019-Nov-14 23:01 319 3 gusting 3 1.1 8.7
2019-Nov-14 22:51 317 2 gusting 2 1.1 9.0
2019-Nov-14 22:42 316 1 gusting 2 1.1 8.9
2019-Nov-14 22:31 328 1 gusting 2 1.1 9.0
2019-Nov-14 22:21 333 1 gusting 3 1.1 8.8
2019-Nov-14 22:11 304 1 gusting 4 1.1 8.9
2019-Nov-14 22:01 1.1 9.0
2019-Nov-14 21:51 284 1 gusting 3 1.1 9.1
2019-Nov-14 21:41 1.1 9.0
2019-Nov-14 21:31 306 2 gusting 4 1.1 8.8
2019-Nov-14 21:21 309 2 gusting 4 1.1 8.7
2019-Nov-14 21:12 307 3 gusting 4 1.1 8.7
2019-Nov-14 20:31 1.1 8.6
2019-Nov-14 20:21 069 1 gusting 2 1.1 8.5
2019-Nov-14 20:11 055 1 gusting 1 1.1 8.5
2019-Nov-14 20:01 1.1 8.6
2019-Nov-14 19:51 332 1 1.1 8.8
2019-Nov-14 19:41 1.1 8.9
2019-Nov-14 19:31 1.1 8.8
2019-Nov-14 19:21 1.1 8.7
2019-Nov-14 19:11 285 1 gusting 2 1.1 8.6
2019-Nov-14 19:01 266 1 1.1 8.5
2019-Nov-14 18:51 1.1 8.3
2019-Nov-14 18:41 024 1 gusting 2 1.1 8.3
2019-Nov-14 18:31 335 1 1.1 8.1
2019-Nov-14 18:21 014 0 1.1 8.1
2019-Nov-14 18:11 043 1 gusting 2 1.1 8.1
2019-Nov-14 18:01 043 1 gusting 2 1.1 7.8
2019-Nov-14 17:51 070 1 gusting 2 1.1 7.7
2019-Nov-14 17:41 043 2 gusting 2 1.1 7.6
2019-Nov-14 17:31 054 1 gusting 2 1.1 7.5
2019-Nov-14 17:21 067 1 gusting 3 1.1 7.5
2019-Nov-14 17:11 065 1 gusting 2 1.1 7.7
2019-Nov-14 17:01 073 1 gusting 3 1.1 7.7
2019-Nov-14 16:51 066 1 1.1 7.7
2019-Nov-14 16:41 1.1 7.7
2019-Nov-14 16:31 1.1 7.7
2019-Nov-14 16:21 1.1 7.6
2019-Nov-14 16:11 1.1 7.5
2019-Nov-14 16:01 0.6 7.4
2019-Nov-14 15:51 1.1 7.4
2019-Nov-14 15:41 1.1 7.5
2019-Nov-14 15:31 086 1 1.1 7.4
2019-Nov-14 15:21 068 1 gusting 2 1.1 7.4
2019-Nov-14 15:11 114 1 gusting 2 1.1 7.6
2019-Nov-14 15:01 173 1 gusting 1 0.8 7.6
2019-Nov-14 14:51 0.6 7.5
2019-Nov-14 14:41 1.1 7.5
2019-Nov-14 14:31 0.8 7.5
2019-Nov-14 14:21 099 0 1.1 7.6
2019-Nov-14 14:11 316 1 1.1 7.6
2019-Nov-14 14:01 1.1 7.7
2019-Nov-14 13:51 274 1 1.1 7.8
2019-Nov-14 13:41 1.1 7.8
2019-Nov-14 13:31 1.1 7.8
2019-Nov-14 13:21 256 1 1.1 7.8
2019-Nov-14 13:11 1.1 7.7
2019-Nov-14 13:01 1.1 7.7
2019-Nov-14 12:51 284 1 1.1 7.7
2019-Nov-14 12:41 1.1 7.7
2019-Nov-14 12:31 1.1 7.7
2019-Nov-14 12:21 1.1 7.7
2019-Nov-14 12:11 1.1 7.6
2019-Nov-14 12:01 1.1 7.6
2019-Nov-14 11:51 273 1 gusting 1 1.1 7.6
2019-Nov-14 11:41 1.1 7.5
2019-Nov-14 11:31 1.1 7.7
2019-Nov-14 11:21 260 1 gusting 1 1.1 7.6
2019-Nov-14 11:11 1.1 7.6
2019-Nov-14 11:01 1.1 7.6
2019-Nov-14 10:51 1.1 7.7
2019-Nov-14 10:41 1.1 7.7
2019-Nov-14 10:31 1.1 7.7
2019-Nov-14 10:21 1.1 7.7
2019-Nov-14 10:11 190 0 gusting 1 1.1 7.6
2019-Nov-14 10:01 1.1 7.6
2019-Nov-14 09:51 1.1 7.5
2019-Nov-14 09:41 257 1 gusting 1 1.1 7.5
2019-Nov-14 09:31 1.1 7.5
2019-Nov-14 09:21 1.1 7.5
2019-Nov-14 09:01 102 1 gusting 2 1.1 7.4
2019-Nov-14 08:51 310 1 gusting 1 1.1 7.4
2019-Nov-14 08:41 311 1 gusting 2 0.9 7.3
2019-Nov-14 08:31 1.1 7.5
2019-Nov-14 08:11 1.1 7.5
2019-Nov-14 08:01 1.1 7.5
2019-Nov-14 07:51 070 0 gusting 1 1.1 7.5
2019-Nov-14 07:41 1.1 7.7
2019-Nov-14 07:31 1.1 7.5
2019-Nov-14 07:21 081 1 gusting 1 1.1 7.6
2019-Nov-14 07:11 162 1 1.1 7.5
2019-Nov-14 07:01 1.1 7.5
2019-Nov-14 06:52 1.1 7.4
2019-Nov-14 05:51 1.1 6.9
2019-Nov-14 05:41 234 1 gusting 1 1.1 6.9
2019-Nov-14 05:31 1.1 6.7
2019-Nov-14 05:21 1.1 6.7
2019-Nov-14 05:11 157 1 1.1 6.7
2019-Nov-14 05:01 177 0 gusting 2 1.1 6.7
2019-Nov-14 04:51 203 1 gusting 2 1.1 6.7
2019-Nov-14 04:41 1.1 6.7
2019-Nov-14 04:33 186 1 gusting 1 1.1 6.8
2019-Nov-14 04:21 1.1 7.1
2019-Nov-14 04:11 1.1 7.3
2019-Nov-14 04:01 1.1 7.4
2019-Nov-14 03:51 1.1 7.4
2019-Nov-14 03:41 1.1 7.4
2019-Nov-14 03:31 145 1 1.1 7.5
2019-Nov-14 03:21 1.1 7.4
2019-Nov-14 03:11 1.1 7.5
2019-Nov-14 03:01 1.1 7.5
2019-Nov-14 02:51 1.1 7.7
2019-Nov-14 02:42 1.1 7.7
2019-Nov-14 02:31 1.1 7.8
2019-Nov-14 02:21 256 1 gusting 2 1.1 8.0
2019-Nov-14 02:14 1.1 7.9
2019-Nov-14 02:02 248 1 gusting 1 1.1 8.1
2019-Nov-14 01:52 221 0 gusting 1 1.1 8.3
2019-Nov-14 01:42 1.1 8.5
2019-Nov-14 01:34 1.1 8.6
2019-Nov-14 01:22 310 2 gusting 2 1.1 8.5
2019-Nov-14 01:14 326 1 gusting 3 1.1 8.6
2019-Nov-14 01:01 262 1 gusting 2 1.1 8.7
2019-Nov-14 00:54 259 1 gusting 2 1.1 8.7
2019-Nov-14 00:41 1.1 8.7
2019-Nov-14 00:31 1.1 8.9
2019-Nov-14 00:21 298 2 gusting 4 1.1 8.9
2019-Nov-14 00:11 296 2 gusting 4 1.1 9.1
2019-Nov-14 00:01 312 2 gusting 4 1.1 9.2
2019-Nov-13 23:51 335 1 gusting 5 1.1 9.3
2019-Nov-13 23:41 332 2 gusting 5 1.1 9.6
2019-Nov-13 23:32 352 1 gusting 8 1.110.0
2019-Nov-13 23:21 318 3 gusting 4 1.110.3
2019-Nov-13 23:11 292 1 gusting 4 1.110.3
2019-Nov-13 23:02 315 3 gusting 4 1.110.1
2019-Nov-13 22:51 288 1 gusting 3 1.110.0
2019-Nov-13 22:41 276 1 gusting 3 1.1 9.7
2019-Nov-13 22:31 285 1 gusting 3 1.1 9.6
2019-Nov-13 22:21 271 1 gusting 3 1.1 9.6
2019-Nov-13 22:11 277 2 gusting 3 1.1 9.5
2019-Nov-13 22:01 263 1 gusting 2 1.1 9.8
2019-Nov-13 21:51 263 2 gusting 4 1.1 9.9
2019-Nov-13 21:41 270 2 gusting 3 1.110.1
2019-Nov-13 21:31 281 1 gusting 2 1.110.1
2019-Nov-13 21:21 1.110.1
2019-Nov-13 21:11 021 1 1.1 9.7
2019-Nov-13 21:01 1.1 9.7
2019-Nov-13 20:52 090 1 gusting 3 1.1 9.5
2019-Nov-13 20:41 077 2 gusting 4 1.1 9.5
2019-Nov-13 20:31 091 1 gusting 3 1.1 9.9
2019-Nov-13 20:21 006 1 gusting 4 1.110.1
2019-Nov-13 20:12 047 2 gusting 4 1.1 9.8
2019-Nov-13 20:01 047 2 gusting 3 1.1 9.8
2019-Nov-13 19:51 1.1 9.9
2019-Nov-13 19:41 270 1 gusting 2 1.1 9.8
2019-Nov-13 19:31 272 0 1.110.1
2019-Nov-13 19:21 1.1 9.6
2019-Nov-13 19:11 097 1 gusting 2 1.1 9.3
2019-Nov-13 19:01 1.1 9.3
2019-Nov-13 18:51 044 1 gusting 2 1.1 9.2
2019-Nov-13 18:41 030 1 1.1 9.3
2019-Nov-13 18:32 1.1 9.1
2019-Nov-13 18:21 270 1 1.1 9.0
2019-Nov-13 18:11 248 1 gusting 3 1.1 8.8
2019-Nov-13 18:04 267 1 gusting 2 1.1 8.9
2019-Nov-13 17:53 264 1 gusting 3 1.1 8.7
2019-Nov-13 17:31 295 1 gusting 3 1.1 8.6
2019-Nov-13 17:21 260 1 gusting 2 1.1 8.6
2019-Nov-13 17:02 1.1 8.7
2019-Nov-13 16:51 1.1 8.7
2019-Nov-13 16:41 287 2 gusting 4 1.0 8.6
2019-Nov-13 16:31 284 2 gusting 5 1.0 8.6
2019-Nov-13 16:23 278 3 gusting 5 0.9 8.7
2019-Nov-13 16:11 296 2 gusting 3 0.8 8.7
2019-Nov-13 16:01 293 2 gusting 3 0.8 8.8
2019-Nov-13 15:52 0.9 8.8
2019-Nov-13 15:41 282 1 gusting 2 0.8 8.7
2019-Nov-13 15:32 287 1 gusting 2 0.7 8.7
2019-Nov-13 15:22 277 1 gusting 3 0.7 8.7
2019-Nov-13 15:11 284 1 gusting 3 0.6 8.7
2019-Nov-13 14:51 284 1 gusting 2 0.5 8.7
2019-Nov-13 14:42 262 1 gusting 3 0.4 8.7
2019-Nov-13 14:31 302 1 gusting 2 0.3 8.8
2019-Nov-13 14:22 283 1 gusting 2 0.3 8.8
2019-Nov-13 14:11 300 2 gusting 3 0.5 8.8
2019-Nov-13 14:02 280 1 gusting 4 0.8 8.7
2019-Nov-13 13:51 245 1 gusting 3 1.0 8.7
2019-Nov-13 13:41 264 1 gusting 3 1.0 8.7
2019-Nov-13 13:33 255 1 gusting 3 0.9 8.8
2019-Nov-13 13:13 248 1 gusting 3 0.9 8.7
2019-Nov-13 13:01 275 1 gusting 4 1.1 8.7
2019-Nov-13 12:53 269 2 gusting 3 0.7 8.7
2019-Nov-13 12:41 261 2 gusting 4 0.6 8.7
2019-Nov-13 12:31 271 1 gusting 3 0.5 8.7
2019-Nov-13 12:21 258 1 gusting 3 0.7 8.7
2019-Nov-13 12:11 248 1 gusting 3 0.6 8.7
2019-Nov-13 12:01 253 1 gusting 3 0.6 8.7
2019-Nov-13 11:51 261 1 gusting 4 1.1 8.7
2019-Nov-13 11:41 255 1 gusting 3 1.1 8.5
2019-Nov-13 11:31 289 2 gusting 3 1.1 8.5
2019-Nov-13 11:21 281 1 gusting 2 1.1 8.1
2019-Nov-13 11:11 1.1 8.2
2019-Nov-13 11:01 1.1 8.4
2019-Nov-13 10:51 187 0 gusting 1 1.1 8.0
2019-Nov-13 10:41 1.1 7.8
2019-Nov-13 10:31 1.1 7.4
2019-Nov-13 10:21 1.1 7.2
2019-Nov-13 10:11 1.1 7.3
2019-Nov-13 10:01 1.1 7.2